Flag for Antarctica

Past Weather in Marambio Base, Antarctica — Yesterday and Last 2 Weeks

Now
46 °F

Overcast.


Feels Like: 44 °F
Forecast: 33 / 20 °F
Wind: 6 mph from Southwest

Location: Base Marambio Centro Met. Antartico
Current Time: Oct 24, 2020 at 6:37:22 pm
Latest Report: Oct 24, 2020 at 5:00 pm
Visibility: 9 mi
Pressure29.21 "Hg
Humidity: 38%
Dew Point: 22 °F
Location of Marambio BaseLocation

Past Weather in Marambio Base — Graph

°F

Marambio Base Temperature Yesterday

Maximum temperature yesterday: 38 °F (at 10:00 am)
Minimum temperature yesterday: 21 °F (at 11:00 pm)
Average temperature yesterday: 28 °F

High & Low Weather Summary for the Past Weeks

 TemperatureHumidityPressure
High46 °F (Oct 24, 5:00 pm)96% (Oct 9, 6:00 pm)29.62 "Hg (Oct 9, 6:00 pm)
Low-5 °F (Oct 17, 6:00 am)38% (Oct 24, 3:00 pm)28.35 "Hg (Oct 11, 3:00 am)
Average10 °F80%29.02 "Hg
* Reported Oct 9 5:00 pm — Oct 24 5:00 pm, Marambio Base. Weather by CustomWeather, © 2020

Note: Actual official high and low records may vary slightly from our data, if they occured in-between our weather recording intervals... More about our weather records

Marambio Base Weather History for the Previous 24 Hours

Scroll right to see more
 ConditionsComfort  
Time TempWeatherWind HumidityBarometerVisibility
5:00 pm
Sat, Oct 24
46 °FOvercast.6 mph38%29.21 "Hg9 mi
4:00 pm41 °FOvercast.10 mph51%29.21 "Hg9 mi
3:00 pm42 °FPassing clouds.10 mph38%29.18 "Hg9 mi
2:00 pm39 °FPassing clouds.14 mph49%29.18 "Hg9 mi
1:00 pm38 °FPassing clouds.14 mph50%29.18 "Hg9 mi
12:00 pm37 °FPassing clouds.12 mph50%29.18 "Hg9 mi
11:00 am36 °FPassing clouds.10 mph54%29.21 "Hg9 mi
10:00 am34 °FPassing clouds.12 mph58%29.21 "Hg9 mi
9:00 am31 °FPassing clouds.12 mph57%29.21 "Hg9 mi
8:00 am31 °FScattered clouds.12 mph50%29.26 "Hg9 mi
7:00 am28 °FScattered clouds.14 mph53%29.23 "Hg9 mi
6:00 am25 °FScattered clouds.14 mph52%29.23 "Hg9 mi
5:00 am22 °FScattered clouds.13 mph63%29.23 "Hg9 mi
4:00 am23 °FScattered clouds.14 mph57%29.26 "Hg9 mi
3:00 am20 °FPassing clouds.14 mph58%29.26 "Hg9 mi
2:00 am23 °FPassing clouds.10 mph66%29.26 "Hg9 mi
1:00 am23 °FSunny.8 mph63%29.29 "Hg9 mi
12:00 am21 °FSunny.10 mph69%29.29 "Hg9 mi
11:00 pm
Fri, Oct 23
21 °FSunny.13 mph69%29.29 "Hg9 mi
10:00 pm21 °FSunny.18 mph74%29.26 "Hg9 mi
9:00 pm22 °FSunny.22 mph70%29.26 "Hg9 mi
8:00 pm22 °FSunny.25 mph70%29.26 "Hg9 mi
7:00 pm24 °FSunny.28 mph72%29.23 "Hg9 mi
6:00 pm25 °FSunny.30 mph69%29.21 "Hg9 mi
Weather by CustomWeather, © 2020

See weather overview